一网星座-0187星 (ONEWEB-0187 )

导读

ONEWEB-0187是英国一网(OneWeb)低轨宽带星座的组网卫星,于2021年4月25日发射入轨,属于该星座第6批发射的36颗卫星之一。卫星单颗重约147.5千克,配备氙等离子体推力器,搭载Ku、Ka波段通信天线,运行于1200公里近极地低地球轨道,设计寿命超7年。作为全球低轨互联网星座的组成部分,它旨在为全球提供低时延高速宽带接入,服务航空、海事、偏远地区联网等场景。

基本信息
目录编号:
48221
目录名称:
ONEWEB-0187
国际标识:
2021-031M
轨道中心:
EARTH
卫星名称:
一网星座-0187星
卫星全名:
一网星座-0187星 (ONEWEB-0187 )
卫星状态:
在轨 (已飞行1876 天)
发射日期:
2021-04-25 UTC
国别 :
英国 (GB)
星等 :
--
轨道信息
数据来源 国际轨道数据 AOE轨道数据
星历时间 2026-06-14T04:22:08+0800
13小时前
查看轨道信息
2026-06-10T06:00:00+0800
4天前
查看轨道信息
半长轴 7583.929km 7583.939km
偏心率 0.0002116 0.0002201
轨道倾角 87.896° 87.895°
近地点辐角 105.096° 115.488°
升交点赤经 290.380° 291.163°
平近点角 255.040° 8.015°
近地点 1204.187km 1204.132km
远地点 1207.397km 1207.472km
周期 109.547分钟 109.547分钟
每日圈数 13.145025 13.145
详细信息
平衡模式:
三轴稳定
覆盖范围:
全球
运营商:
一网卫星公司
运营商所在国:
英国
制造商(研发单位):
一网卫星公司
制造商所在国:
英国
使用方式:
暂无
卫星简介
OneWeb卫星网络由648颗重约125公斤的微型卫星组成,运行在1200公里的轨道上。 每颗卫星都能够提供至少每秒8千兆位的吞吐量,以使用其高吞吐量的Ku频段有效载荷为家庭和移动平台提供互联网接入。该卫星仍在工作。
2D轨道图
3D轨道图
轨道高度分析图
轨道倾角分析图
轨道综合分析图
查看轨道综合分析图